TimeCST,TemperatureF,Dew PointF,Humidity,Sea Level PressureIn,VisibilityMPH,Wind Direction,Wind SpeedMPH,Gust SpeedMPH,PrecipitationIn,Events,Conditions,WindDirDegrees,DateUTC
12:55 AM,27.5,15.8,61,30.30,10.0,NNE,9.2,-,N/A,,Overcast,30,2013-01-15 06:55:00
1:55 AM,27.3,16.2,63,30.30,10.0,NNE,9.2,-,N/A,,Overcast,30,2013-01-15 07:55:00
2:55 AM,27.1,16.2,63,30.29,10.0,NE,8.1,-,N/A,,Overcast,40,2013-01-15 08:55:00
3:55 AM,27.0,16.3,64,30.30,10.0,NNE,8.1,-,N/A,,Overcast,30,2013-01-15 09:55:00
4:55 AM,27.0,16.2,64,30.29,10.0,North,9.2,-,N/A,,Overcast,10,2013-01-15 10:55:00
5:55 AM,26.8,16.5,65,30.29,10.0,NNE,11.5,-,N/A,,Overcast,20,2013-01-15 11:55:00
6:55 AM,26.8,16.2,64,30.28,10.0,NNE,9.2,-,N/A,,Overcast,30,2013-01-15 12:55:00
7:55 AM,26.1,17.1,69,30.30,10.0,North,6.9,-,N/A,,Overcast,10,2013-01-15 13:55:00
8:55 AM,26.6,17.4,68,30.32,10.0,NNE,11.5,-,N/A,,Overcast,20,2013-01-15 14:55:00
9:55 AM,28.0,16.3,62,30.32,10.0,North,10.4,-,N/A,,Clear,10,2013-01-15 15:55:00
10:55 AM,31.1,14.9,51,30.32,10.0,NNE,9.2,-,N/A,,Overcast,20,2013-01-15 16:55:00
11:55 AM,34.3,12.7,41,30.28,10.0,North,11.5,-,N/A,,Overcast,360,2013-01-15 17:55:00
12:55 PM,36.3,14.0,40,30.25,10.0,NNW,12.7,-,N/A,,Overcast,330,2013-01-15 18:55:00
1:55 PM,36.7,11.7,36,30.24,10.0,North,8.1,-,N/A,,Overcast,10,2013-01-15 19:55:00
2:55 PM,38.5,12.6,35,30.24,10.0,NNW,9.2,-,N/A,,Mostly Cloudy,340,2013-01-15 20:55:00
3:55 PM,37.0,11.7,35,30.25,10.0,NNW,10.4,-,N/A,,Clear,340,2013-01-15 21:55:00
4:55 PM,36.7,10.8,34,30.26,10.0,North,8.1,-,N/A,,Partly Cloudy,360,2013-01-15 22:55:00
5:55 PM,32.4,13.8,46,30.27,10.0,North,5.8,-,N/A,,Clear,360,2013-01-15 23:55:00
6:55 PM,29.7,15.1,55,30.28,10.0,North,3.5,-,N/A,,Clear,360,2013-01-16 00:55:00
7:55 PM,29.7,13.6,51,30.29,10.0,North,3.5,-,N/A,,Clear,350,2013-01-16 01:55:00
8:55 PM,27.0,14.5,60,30.30,10.0,Calm,Calm,-,N/A,,Clear,0,2013-01-16 02:55:00
9:55 PM,24.4,14.4,66,30.30,10.0,Calm,Calm,-,N/A,,Clear,0,2013-01-16 03:55:00
10:55 PM,22.6,14.5,71,30.30,10.0,Calm,Calm,-,N/A,,Clear,0,2013-01-16 04:55:00
11:55 PM,26.1,15.3,64,30.27,10.0,WNW,3.5,-,N/A,,Clear,300,2013-01-16 05:55:00